JAISAT-1
1 44419U 19038F 20156.85533196 .00000693 00000-0 43068-4 0 9990
2 44419 97.5378 118.5996 0021752 169.6532 190.5151 15.12764958 50691
LightSail-2
1 44420U 19036AC 20156.57044765 .00003992 00000-0 84795-3 0 9994
2 44420 024.0105 189.2195 0019388 015.5804 344.5252 14.55581508048442
Taurus 1
1 44530U 19059C 20156.72056801 .00001499 00000-0 43686-3 0 9996
2 44530 98.5680 237.6837 0015175 192.0878 167.9938 14.45546109 38502
MO-106
1 44830U 19084G 20156.71001787 .00043669 00000-0 26009-3 0 9994
2 44830 96.9761 25.7556 0024271 284.6781 75.1795 15.77406612 28442
TRSI-Sat
1 44831U 19084H 20155.89086292 .00049145 00000-0 29619-3 0 9992
2 44831 096.9776 024.9380 0024566 287.3898 072.4682 15.77108311028328
MO-105
1 44832U 19084J 20156.71700886 .00051256 00000-0 28970-3 0 9992
2 44832 96.9760 25.9082 0022935 282.5310 77.3392 15.78595614 28459
Duchifat 3
1 44854U 19089C 20156.43924584 .00000213 00000-0 23665-4 0 9997
2 44854 036.9667 175.2634 0009279 316.8349 043.1669 14.99060290026347
OPS-SAT
1 44878U 19092F 20156.49392134 .00000851 00000-0 48358-4 0 9997
2 44878 097.4685 339.9879 0015352 046.5084 313.7422 15.15464265025573
FloripaSat 1
1 44885U 19093G 20156.76619585 .00000220 00000-0 34435-4 0 9999
2 44885 97.9570 233.0360 0016215 89.4510 270.8561 14.82028780 24822
RS-44
1 44909U 19096E 20156.06708255 .00000028 00000-0 73828-4 0 9990
2 44909 082.5220 004.2120 0216313 257.7694 099.9108 12.79707699020478
SwampSat-2
1 45115U 19071E 20156.77249249 .00008572 00000-0 25820-3 0 9994
2 45115 51.6423 64.0371 0013466 16.7557 343.3868 15.35080982 19175
HO-107
1 45119U 19071J 20156.29906029 .00002098 00000-0 75152-4 0 9992
2 45119 051.6435 066.8651 0012502 009.6521 350.4699 15.33529357019101
Phoenix
1 45258U 98067RB 20156.75133312 .00003764 00000-0 71971-4 0 9992
2 45258 51.6429 49.1118 0005448 299.1719 60.8725 15.50773428 16508
AztechSat-1
1 45261U 98067RE 20156.13899020 .00007721 00000-0 13513-3 0 9997
2 45261 51.6428 51.7770 0007154 315.0488 44.9922 15.51635490 16432
QARMAN
1 45263U 98067RG 20156.42676484 .00005809 00000-0 10583-3 0 9997
2 45263 051.6429 050.6973 0006671 313.1455 046.8976 15.51027525016517
Quetzal 1
1 45598U 98067RL 20156.75114933 .00005059 00000-0 95948-4 0 9996
2 45598 51.6434 49.8606 0003547 50.4727 309.6575 15.50186049 5822
